Wind_Speed
13 14 14 15 13 17 17 19 21 22 23 24 24 23 24 25 28 17 7 5 3 3 4 6 10 9 6 4 5 4 3 4 5 6 4 5 6 3 7 4 5 3 3 14 21
14 14 15 15 15 16 17 19 21 22 23 23 23 22 22 24 25 12 7 7 10 6 5 3 4 5 2 4 2 4 3 5 4 5 4 4 3 5 2 2 4 4 13 31 27
14 15 16 15 15 16 17 19 21 22 23 22 21 21 21 20 5 6 6 6 8 4 5 6 9 1 3 4 4 3 4 7 1 3 7 5 4 3 5 1 6 11 17 18 28
15 15 16 16 15 17 17 18 21 22 22 21 20 19 18 5 1 2 5 5 5 7 5 2 1 1 3 5 3 4 7 8 9 7 6 4 7 3 3 6 4 5 14 19 14
16 16 17 16 16 17 18 19 20 21 21 19 17 16 7 3 9 7 12 5 6 9 7 3 2 3 3 6 6 6 5 4 8 10 6 5 4 6 2 2 15 13 18 14 14
17 17 17 17 18 18 18 19 21 21 19 17 15 12 3 4 3 6 2 3 5 8 5 5 6 3 6 4 5 0 5 8 3 6 5 2 4 9 6 4 14 8 18 15 16
18 17 18 18 18 19 19 19 21 20 18 15 12 7 2 14 3 3 14 17 12 9 4 9 8 4 2 6 1 3 6 5 5 7 1 4 5 4 7 5 12 13 17 21 24
19 18 18 18 19 20 20 21 21 20 17 12 9 2 7 11 14 16 13 13 11 13 16 11 3 2 0 3 7 3 4 4 3 1 3 8 2 4 11 11 8 12 13 17 19
20 18 18 18 19 20 22 23 23 20 12 9 4 1 10 14 8 11 15 10 11 16 17 4 3 2 6 3 4 5 1 6 1 6 2 5 3 4 14 8 9 14 14 16 13
19 19 18 17 18 20 22 24 21 13 2 1 3 4 8 3 7 8 18 14 5 2 4 4 4 2 3 5 2 3 2 3 5 5 4 3 6 6 12 12 14 16 16 16 14
19 18 17 16 17 18 21 9 3 1 3 8 5 5 6 10 12 3 11 3 5 6 3 4 4 3 4 5 4 6 11 10 10 8 4 8 6 10 8 9 14 16 17 17 16
20 17 17 15 15 16 15 2 5 2 8 15 17 14 23 9 5 10 2 4 4 4 3 5 3 4 1 5 1 5 8 17 16 6 10 5 7 6 7 13 16 17 15 17 12
22 17 16 14 14 15 10 13 10 15 3 8 9 7 6 12 8 8 4 5 5 6 5 6 7 1 2 4 4 10 8 6 7 3 6 5 3 2 3 2 3 6 11 13 17
22 19 15 12 9 5 7 8 14 7 2 7 5 7 7 5 5 13 8 6 4 7 3 4 3 4 2 1 5 7 7 5 2 3 5 2 4 4 7 10 4 6 7 11 12
20 18 17 15 3 4 2 17 8 3 3 4 5 8 9 9 3 5 11 4 6 6 6 7 7 6 4 9 6 10 3 4 2 4 4 2 4 6 5 9 14 14 13 13 16
21 20 19 16 18 20 16 20 3 2 7 4 7 7 7 6 3 4 5 4 5 6 4 6 1 6 7 6 6 8 3 7 7 3 3 2 5 5 5 12 9 7 12 16 15
18 21 25 20 5 5 9 1 2 5 5 5 6 7 7 7 5 4 5 6 5 4 2 2 3 2 3 4 4 4 6 3 4 4 4 6 3 8 6 9 9 9 10 12 13
21 20 26 29 20 8 3 2 9 8 7 4 6 8 9 7 6 6 4 4 1 4 3 5 4 2 1 3 1 4 4 5 3 3 5 3 5 5 7 8 3 7 10 11 13
20 21 18 33 27 11 2 12 8 6 4 4 4 6 5 7 5 5 8 8 8 8 7 4 4 5 2 3 5 2 2 7 4 1 1 3 5 7 4 3 0 8 8 9 11
19 12 15 26 25 9 5 13 6 8 6 5 5 5 9 9 8 7 6 6 7 10 6 6 1 4 5 2 4 5 6 3 3 2 3 4 4 5 4 3 3 7 9 8 8
19 5 17 25 21 4 12 12 9 20 4 3 3 3 8 9 9 6 7 7 8 3 9 6 4 4 3 5 9 3 2 1 4 4 4 1 5 5 8 7 9 9 12 15 14
10 7 27 34 8 3 14 12 10 20 5 6 3 6 5 9 8 9 10 9 5 10 9 6 5 4 8 4 3 4 5 6 5 4 1 4 5 4 10 10 10 11 11 12 16
7 4 26 30 11 12 7 18 15 13 5 4 5 5 4 2 2 7 6 0 1 6 8 8 2 2 8 7 4 2 6 5 4 4 6 5 6 2 3 7 8 9 8 11 12
5 8 5 9 8 19 18 18 21 14 19 7 7 6 6 2 4 5 3 3 2 4 8 7 5 7 8 7 3 4 5 5 6 3 4 6 6 6 7 7 8 8 9 11 13
5 8 10 13 17 17 19 12 17 15 13 9 8 15 9 5 3 5 2 3 2 4 4 5 5 4 5 3 3 1 3 2 4 4 5 7 7 8 7 8 11 8 7 7 7
4 4 7 5 17 20 21 22 25 20 10 17 15 13 6 8 8 7 7 4 5 1 4 2 2 2 3 3 3 3 3 5 4 3 5 5 6 5 3 0 6 9 7 7 9
19 10 4 15 18 18 21 22 24 22 14 21 15 14 10 10 9 7 8 9 10 10 6 7 6 3 4 3 4 6 6 7 5 5 5 5 5 2 5 7 4 3 5 7 8
Wind_Direction
324 327 323 323 322 322 329 331 331 333 335 333 334 332 329 327 323 316 252 252 165 139 308 272 286 291 275 293 185 129 67 289 255 180 218 197 210 188 342 300 99 59 231 123 135
315 321 322 319 320 320 326 328 328 331 333 333 333 331 330 328 324 276 334 296 231 234 311 260 318 28 314 259 295 108 136 249 249 137 185 214 158 150 192 82 52 95 113 119 125
307 314 318 317 320 317 322 325 325 331 331 332 331 331 331 325 307 256 353 340 203 217 231 280 281 330 234 220 218 213 209 188 288 111 117 168 178 194 121 158 200 180 138 140 130
297 306 312 316 317 316 319 322 324 329 329 330 329 331 331 333 272 243 328 329 177 200 248 297 3 195 268 307 204 215 239 178 150 150 154 186 144 55 120 236 255 140 151 138 137
291 298 306 314 315 316 316 319 323 327 327 327 327 334 344 332 252 295 298 267 157 190 211 179 262 197 265 289 289 168 190 120 146 153 186 128 54 146 214 359 98 112 120 125 113
284 292 299 309 312 313 313 316 320 322 323 322 324 334 359 284 242 19 235 214 180 194 220 174 233 197 273 278 20 184 161 104 84 128 189 151 190 124 282 183 104 129 131 125 133
277 285 292 302 310 309 309 312 315 317 319 316 318 337 282 244 186 232 282 276 253 216 212 238 251 190 235 318 100 70 88 82 179 192 54 39 6 52 156 232 128 155 143 158 161
271 279 287 296 305 309 307 308 311 311 311 306 312 319 251 269 312 296 262 272 260 250 238 280 257 200 11 322 5 143 109 140 291 230 228 92 281 297 154 154 159 141 163 162 173
262 272 280 290 301 307 307 308 306 299 296 294 292 165 267 308 279 251 247 251 292 251 240 244 34 163 2 70 9 10 305 95 273 245 147 121 206 231 160 171 159 163 165 168 180
257 264 274 284 297 307 309 313 304 292 255 217 257 340 271 279 307 237 230 234 228 78 21 30 26 45 48 59 357 283 352 1 251 235 297 203 228 211 162 161 159 161 166 179 187
252 255 267 280 294 308 317 335 344 359 193 206 194 257 286 313 329 218 232 145 115 54 41 341 53 178 120 58 299 334 341 290 257 241 185 225 190 225 152 138 137 161 171 184 192
249 249 259 272 289 299 304 259 241 88 297 231 243 240 257 285 311 309 234 109 124 164 172 27 287 238 70 113 271 339 276 278 278 184 182 161 233 205 170 168 167 162 168 170 169
239 245 251 263 283 289 261 252 291 300 287 281 206 220 218 163 213 260 149 130 137 169 211 165 222 319 26 43 333 283 258 241 230 292 160 118 39 154 246 333 79 189 166 167 161
235 236 238 247 278 259 258 339 354 167 348 271 206 236 163 174 267 233 188 143 176 192 184 225 212 175 124 287 223 278 226 210 253 48 146 154 207 245 184 222 196 215 191 173 171
237 224 226 218 259 232 204 330 355 147 328 232 164 171 148 161 225 237 193 109 168 174 132 243 173 173 173 224 231 240 218 327 89 83 65 351 85 263 164 200 215 205 195 186 183
237 220 217 215 242 251 291 319 148 86 249 266 148 167 130 209 262 353 163 140 178 142 276 239 212 149 204 229 224 285 85 37 33 34 27 238 131 268 210 220 201 205 194 181 179
235 218 213 208 214 259 304 257 100 210 307 201 172 151 157 186 244 193 190 161 156 136 170 313 223 266 178 313 49 40 52 359 7 18 227 319 126 244 239 245 211 189 185 180 166
231 228 225 215 217 265 7 93 216 226 245 328 152 150 174 166 238 185 149 192 231 121 138 180 277 166 199 147 225 27 137 149 236 208 237 233 236 250 288 242 133 157 143 156 161
225 234 214 221 216 237 123 206 194 228 206 245 132 143 223 203 195 204 182 188 203 164 170 167 245 319 202 133 137 166 165 168 131 223 55 250 303 325 334 321 113 130 137 152 158
202 215 217 218 209 177 216 221 223 233 8 0 205 167 181 200 175 163 197 214 211 188 163 204 151 223 274 216 152 160 154 132 70 247 250 289 275 234 258 202 149 162 165 165 160
192 211 192 197 161 184 214 214 227 267 329 314 295 267 195 189 193 191 209 247 203 188 141 143 128 278 343 211 206 140 220 321 133 148 179 209 267 227 201 195 187 194 186 176 173
198 197 173 162 175 192 219 195 232 261 272 271 291 244 220 191 187 201 206 206 145 149 154 196 132 182 213 232 124 165 234 179 126 248 174 162 266 244 202 200 189 198 189 185 179
198 181 167 164 191 212 216 215 226 251 224 242 253 214 187 188 171 187 195 57 160 138 154 172 182 63 349 339 15 177 218 189 109 76 193 143 260 305 240 246 219 194 194 191 187
213 170 166 200 216 195 194 199 212 231 248 268 282 310 253 220 179 230 173 111 355 111 122 113 146 157 185 211 172 219 261 202 141 123 201 214 235 265 267 223 228 217 206 193 195
217 195 173 190 204 199 190 195 201 222 213 193 247 235 245 237 174 183 142 93 13 158 108 120 170 163 191 207 198 212 256 261 164 193 159 255 207 247 252 232 217 191 195 170 170
202 189 158 177 190 196 189 207 198 216 236 213 232 260 244 205 184 190 147 160 192 344 107 69 237 186 230 30 63 194 251 284 245 224 228 234 266 249 268 35 157 185 162 177 163
219 283 180 204 180 188 205 199 206 201 216 227 191 232 255 233 212 210 195 175 173 154 162 137 135 103 251 343 9 335 222 215 236 239 196 230 239 206 55 60 35 51 116 158 147
Height
843 841 839 838 835 835 831 829 827 823 819 816 813 809 806 801 795 791 786 779 778 780 779 781 782 786 785 784 782 784 813 816 804 800 797 791 794 789 784 785 776 790 796 792 804
841 839 838 836 833 832 830 827 826 822 818 814 811 808 804 799 792 786 777 776 777 779 779 781 782 785 788 785 782 793 812 801 783 785 794 791 791 791 794 791 794 797 799 795 804
840 837 836 833 830 829 828 825 824 820 817 812 809 806 803 798 796 779 776 775 775 777 778 779 782 784 788 781 783 787 799 786 784 784 787 794 792 788 793 798 795 794 799 803 800
838 836 834 831 828 827 826 823 822 818 815 811 808 805 801 799 800 776 776 775 775 776 777 778 782 787 790 788 777 785 777 774 783 783 790 794 791 794 794 788 783 789 797 801 808
835 834 832 829 826 824 824 821 819 816 814 810 807 805 802 801 789 776 776 775 774 775 775 778 782 784 789 782 776 780 774 773 775 777 779 783 789 791 791 786 780 792 801 806 811
832 831 830 827 824 822 820 818 817 814 811 809 806 805 804 805 776 775 777 776 773 774 774 777 778 778 781 776 778 772 773 782 780 781 779 782 790 787 795 787 780 793 804 808 810
829 828 827 824 822 820 818 815 813 812 809 808 806 804 803 789 775 776 776 775 774 772 772 771 773 777 773 776 772 774 787 786 787 781 780 779 786 791 795 794 787 795 803 801 804
825 825 824 822 820 818 815 812 810 809 807 806 805 804 796 772 773 772 771 771 771 772 771 771 771 770 772 770 776 782 790 804 786 777 774 783 802 784 793 793 797 799 800 804 807
822 822 821 819 818 816 813 809 806 804 804 804 805 803 791 771 769 767 768 768 768 768 771 770 769 774 775 787 798 792 805 802 795 777 776 784 798 783 793 791 796 801 802 804 809
817 818 818 817 816 813 810 806 801 800 801 803 804 807 783 771 767 764 764 766 768 768 771 773 780 786 788 799 815 804 803 799 802 784 782 790 794 787 789 790 797 801 804 804 806
813 814 815 815 814 812 809 805 803 802 799 792 789 785 774 769 763 762 762 764 768 775 791 782 794 798 789 784 789 796 794 801 791 785 789 792 788 791 785 790 795 798 802 802 802
809 811 812 813 812 811 810 808 802 804 800 781 778 777 771 774 778 761 760 768 774 787 784 793 805 783 780 788 793 794 801 795 780 778 789 791 790 785 786 785 784 790 794 796 800
805 807 809 811 810 809 806 802 802 800 802 773 766 768 766 768 773 765 760 766 778 786 784 798 789 780 784 791 795 794 799 790 790 774 777 790 795 789 784 785 786 785 785 789 791
800 804 807 809 812 806 802 799 795 797 810 779 765 756 759 761 769 752 755 764 775 785 784 790 779 784 788 790 789 803 778 776 776 786 803 783 822 797 787 787 788 791 790 789 789
796 799 803 806 804 803 798 796 795 797 825 759 756 744 749 761 756 752 749 758 777 779 784 788 786 785 786 784 777 787 773 775 776 794 795 794 810 797 783 788 780 778 783 784 783
792 795 798 801 802 795 796 795 797 810 817 760 747 756 760 760 756 750 752 752 758 775 775 776 768 772 776 771 772 765 774 786 792 800 815 793 805 804 792 772 768 769 770 777 781
788 792 793 796 797 797 796 795 813 808 762 758 755 753 759 765 762 759 762 766 778 789 791 776 777 764 765 772 771 775 793 824 829 835 826 791 804 791 771 764 763 765 769 773 778
784 789 787 790 794 795 794 802 806 780 767 744 746 752 764 760 762 761 765 776 767 772 793 799 800 774 762 773 781 788 792 825 822 833 818 790 804 782 758 752 753 757 762 770 776
782 785 783 782 791 796 798 795 790 772 749 751 747 762 764 758 758 762 769 774 764 768 791 795 791 775 767 767 773 789 801 796 809 811 822 807 785 770 758 758 757 765 767 775 778
776 780 776 780 787 796 795 780 772 754 748 746 758 752 767 762 767 767 767 755 759 755 760 778 795 780 772 765 767 776 780 805 810 819 818 808 800 795 772 763 768 770 772 774 778
774 774 765 776 785 791 776 772 766 746 754 754 752 751 750 758 757 764 760 751 747 750 757 773 784 788 776 776 776 784 786 786 794 812 822 832 809 771 770 764 767 767 765 767 772
765 759 757 768 777 779 768 765 764 751 753 756 749 749 746 748 753 758 758 749 739 745 762 765 784 799 781 762 762 771 777 784 815 801 810 822 807 759 761 759 759 761 762 764 765
750 749 754 756 761 764 761 760 759 752 753 751 748 740 733 739 751 749 748 738 734 740 755 762 784 805 792 777 765 772 769 769 783 799 801 828 807 759 756 759 757 760 760 760 763
740 740 746 747 737 746 755 754 757 747 753 750 748 744 743 739 737 744 744 738 740 739 745 751 771 784 801 785 773 774 764 763 778 815 797 800 779 763 758 757 756 756 756 757 757
723 713 712 723 729 733 744 748 750 749 743 741 744 743 747 746 740 744 743 743 743 745 742 753 770 766 768 766 763 763 763 762 768 774 790 778 779 760 754 752 749 748 751 756 759
707 703 707 711 722 731 733 734 737 739 736 736 743 734 735 741 739 746 742 744 747 744 744 750 769 765 769 770 769 769 763 765 764 761 765 765 768 750 745 746 745 746 749 753 757
707 703 699 704 711 725 713 720 722 729 724 723 728 733 734 731 724 723 722 726 731 743 753 758 771 791 788 784 777 794 771 764 759 757 757 768 760 750 756 755 753 750 748 753 758